Location: *
(43.4667°N, 11.6833°E)
Time: 11:16:51
(UTC+00:00)

Lacrosse 5 rocket - Pass Details

Date: 19 July 2019
Orbit: 465 x 633 km, 57.0° (Epoch: 20 August)

Event Time Altitude Azimuth Distance (km) Brightness Sun altitude
Rises 22:00:28 0° 315° (NW) 2,930 6.1 -23.2°
Reaches altitude 10° 22:03:00 10° 326° (NW) 2,014 5.2 -23.4°
Maximum altitude 22:07:09 32° 29° (NNE) 1,074 3.1 -23.6°
Enters shadow 22:09:16 21° 75° (ENE) 1,371 3.3 -23.8°
